Find OneWeb SL0198

NORAD ID: 48216 Int'l Des: 2021-031 Owner: ONEWEBN Country: UK Constellation: oneweb operational
LEOCIRCULARPOLARONEWEB_TYPE

当前视图

正在加载3D地球...

About OneWeb SL0198

OneWeb SL0198 (NORAD 48216) is a oneweb constellation satellite launched Apr 25, 2021 by ONEWEBN of UK. It operates in LEO, CIRCULAR, POLAR, ONEWEB_TYPE orbit with a mass of 148.00 kg.

关于 OneWeb SL0198

正在加载描述...

即将过境

Passes for default location (London). Set your location on the main map for personalized predictions.

高度历史

Loading altitude history...

两行轨道根数

1 48216U 21031G 26171.34753464 -.00000140 00000-0 -41299-3 0 9996
2 48216 87.8961 289.0815 0002141 112.0461 248.0897 13.14502491248909
Epoch: Jun 20, 2026 • Age: 24 hours

当前状态

高度 1216.4 km
速度 7.25 km/s
星下点 70.53°N, 63.72°E
发射日期 Apr 25, 2021
运行时间 5.1 years
类型 internet

技术详情

分类 Payload
质量 148.00 kg
干质量 140.00 kg
总质量 148.00 kg
长度 1.30 m
直径 1.00 m
跨度 5.00 m
形状 Trapezoid+2 pan
制造商 ONEWUS
平台类型 ARROW
阶段状态 In Orbit
所有者/国家 ONEWEBN/UK

Most Searched